Location: Albany
(35.0170°S, 117.8920°E)
Time: 03:13:44
(UTC+08:00)

Vanguard 1 - Pass Details

Date: 26 January 2021
Orbit: 649 x 3833 km, 34.2° (Epoch: 26 February)

Event Time Altitude Azimuth Distance (km) Brightness Sun altitude
Rises 04:41:25 0° 263° (W) 3,026 - -8.2°
Exits shadow 04:42:33 - 264° (W) 2,547 11.7 -8.0°
Reaches altitude 10° 04:43:42 10° 266° (W) 2,063 11.2 -7.7°
Maximum altitude 04:48:05 65° 348° (NNW) 757 9.4 -7.0°
Drops below altitude 10° 04:53:25 10° 69° (ENE) 2,498 12.8 -6.0°
Sets 04:56:28 0° 72° (ENE) 3,745 13.8 -5.4°
